This is the latest recevied weather packets stored in our database for station/object SQ5AAG-2. If no packets are shown the sender has not sent any weather packets the latest 10 day(s).
| Time | Temp. | Humidity | Pressure | Rain* | Wind** | Luminosity | Snow |
|---|---|---|---|---|---|---|---|
| 1778067101 | 25.56° C | 41% | 990 hPa | 0 mm | - | - | - |
| 1778066801 | 25.56° C | 41% | 990 hPa | 0 mm | - | - | - |
| 1778066633 | 25.56° C | 41% | 990.1 hPa | 0 mm | - | - | - |
| 1778066500 | 25.56° C | 41% | 990.1 hPa | 0 mm | - | - | - |
| 1778066200 | 25° C | 41% | 990.3 hPa | 0 mm | - | - | - |
| 1778065900 | 25.56° C | 41% | 990.3 hPa | 0 mm | - | - | - |
| 1778065600 | 25° C | 41% | 990.2 hPa | 0 mm | - | - | - |
| 1778065299 | 25° C | 41% | 990 hPa | 0 mm | - | - | - |
| 1778064999 | 25.56° C | 41% | 990.2 hPa | 0 mm | - | - | - |
| 1778064699 | 25.56° C | 41% | 990.2 hPa | 0 mm | - | - | - |
| 1778064398 | 25° C | 41% | 990.2 hPa | 0 mm | - | - | - |
| 1778064098 | 25° C | 41% | 990.2 hPa | 0 mm | - | - | - |
| 1778063798 | 24.44° C | 42% | 990.3 hPa | 0 mm | - | - | - |
| 1778063498 | 24.44° C | 42% | 990.3 hPa | 0 mm | - | - | - |
| 1778063197 | 24.44° C | 42% | 990.3 hPa | 0 mm | - | - | - |
| 1778062898 | 24.44° C | 43% | 990.2 hPa | 0 mm | - | - | - |
| 1778062597 | 23.89° C | 43% | 990.2 hPa | 0 mm | - | - | - |
| 1778062299 | 23.89° C | 43% | 990 hPa | 0 mm | - | - | - |
| 1778061997 | 23.33° C | 43% | 990.1 hPa | 0 mm | - | - | - |
| 1778061696 | 23.33° C | 43% | 990 hPa | 0 mm | - | - | - |
| 1778061396 | 23.33° C | 43% | 990.2 hPa | 0 mm | - | - | - |
| 1778061095 | 23.33° C | 42% | 990.4 hPa | 0 mm | - | - | - |
| 1778060795 | 23.33° C | 42% | 990.5 hPa | 0 mm | - | - | - |
| 1778060544 | 23.89° C | 42% | 990.5 hPa | 0 mm | - | - | - |
| 1778060495 | 23.89° C | 42% | 990.5 hPa | 0 mm | - | - | - |
* Rain latest hour (hover to see other rain measurements)
** Current wind speed in m/s (hover to see current wind gust speed)